<?xml version="1.0" encoding="UTF-8" standalone="no" ?>
<gpx xmlns="http://www.topografix.com/GPX/1/1" xmlns:xsi="http://www.w3.org/2001/XMLSchema-instance" xsi:schemaLocation="http://www.topografix.com/GPX/1/1 http://www.topografix.com/GPX/1/1/gpx.xsd" version="1.1" creator="VisuGPX - https://www.visugpx.com">
  <metadata>
    <name>Rochefort 12 km GNE</name>
  </metadata>
  <trk>
    <name><![CDATA[Rochefort Pont Transbordeur 12 km GNE-20055881]]></name>
    <trkseg>
      <trkpt lat="45.9175" lon="-0.96071">
        <ele>-2</ele>
        <time>2024-10-14T17:27:51Z</time>
      </trkpt>
      <trkpt lat="45.91747" lon="-0.96071">
        <ele>-2</ele>
        <time>2024-10-14T17:27:55Z</time>
      </trkpt>
      <trkpt lat="45.91744" lon="-0.96071">
        <ele>-1</ele>
        <time>2024-10-14T17:27:59Z</time>
      </trkpt>
      <trkpt lat="45.91714" lon="-0.96072">
        <ele>3</ele>
        <time>2024-10-14T17:28:39Z</time>
      </trkpt>
      <trkpt lat="45.91687" lon="-0.96076">
        <ele>6</ele>
        <time>2024-10-14T17:29:15Z</time>
      </trkpt>
      <trkpt lat="45.91687" lon="-0.96076">
        <ele>6</ele>
        <time>2024-10-14T17:29:15Z</time>
      </trkpt>
      <trkpt lat="45.9168" lon="-0.96076">
        <ele>7</ele>
        <time>2024-10-14T17:29:25Z</time>
      </trkpt>
      <trkpt lat="45.91538" lon="-0.96066">
        <ele>12</ele>
        <time>2024-10-14T17:32:34Z</time>
      </trkpt>
      <trkpt lat="45.91537" lon="-0.96066">
        <ele>12</ele>
        <time>2024-10-14T17:32:36Z</time>
      </trkpt>
      <trkpt lat="45.91537" lon="-0.96066">
        <ele>12</ele>
        <time>2024-10-14T17:32:36Z</time>
      </trkpt>
      <trkpt lat="45.91526" lon="-0.96064">
        <ele>12</ele>
        <time>2024-10-14T17:32:50Z</time>
      </trkpt>
      <trkpt lat="45.91497" lon="-0.96043">
        <ele>12</ele>
        <time>2024-10-14T17:33:34Z</time>
      </trkpt>
      <trkpt lat="45.9137" lon="-0.95954">
        <ele>10</ele>
        <time>2024-10-14T17:36:42Z</time>
      </trkpt>
      <trkpt lat="45.9137" lon="-0.95954">
        <ele>10</ele>
        <time>2024-10-14T17:36:42Z</time>
      </trkpt>
      <trkpt lat="45.91366" lon="-0.95951">
        <ele>10</ele>
        <time>2024-10-14T17:36:48Z</time>
      </trkpt>
      <trkpt lat="45.91362" lon="-0.95944">
        <ele>10</ele>
        <time>2024-10-14T17:36:57Z</time>
      </trkpt>
      <trkpt lat="45.91301" lon="-0.95944">
        <ele>11</ele>
        <time>2024-10-14T17:38:18Z</time>
      </trkpt>
      <trkpt lat="45.91256" lon="-0.95946">
        <ele>10</ele>
        <time>2024-10-14T17:39:18Z</time>
      </trkpt>
      <trkpt lat="45.91213" lon="-0.95948">
        <ele>9</ele>
        <time>2024-10-14T17:40:16Z</time>
      </trkpt>
      <trkpt lat="45.91069" lon="-0.95953">
        <ele>8</ele>
        <time>2024-10-14T17:43:28Z</time>
      </trkpt>
      <trkpt lat="45.91064" lon="-0.95956">
        <ele>9</ele>
        <time>2024-10-14T17:43:35Z</time>
      </trkpt>
      <trkpt lat="45.91061" lon="-0.95959">
        <ele>9</ele>
        <time>2024-10-14T17:43:40Z</time>
      </trkpt>
      <trkpt lat="45.91054" lon="-0.9598">
        <ele>9</ele>
        <time>2024-10-14T17:44:02Z</time>
      </trkpt>
      <trkpt lat="45.91039" lon="-0.95974">
        <ele>9</ele>
        <time>2024-10-14T17:44:23Z</time>
      </trkpt>
      <trkpt lat="45.91022" lon="-0.95968">
        <ele>8</ele>
        <time>2024-10-14T17:44:46Z</time>
      </trkpt>
      <trkpt lat="45.90985" lon="-0.9596">
        <ele>8</ele>
        <time>2024-10-14T17:45:36Z</time>
      </trkpt>
      <trkpt lat="45.90951" lon="-0.95957">
        <ele>8</ele>
        <time>2024-10-14T17:46:21Z</time>
      </trkpt>
      <trkpt lat="45.90915" lon="-0.95959">
        <ele>8</ele>
        <time>2024-10-14T17:47:09Z</time>
      </trkpt>
      <trkpt lat="45.90895" lon="-0.95954">
        <ele>8</ele>
        <time>2024-10-14T17:47:36Z</time>
      </trkpt>
      <trkpt lat="45.90892" lon="-0.95939">
        <ele>7</ele>
        <time>2024-10-14T17:47:51Z</time>
      </trkpt>
      <trkpt lat="45.9086" lon="-0.95897">
        <ele>6</ele>
        <time>2024-10-14T17:48:49Z</time>
      </trkpt>
      <trkpt lat="45.90853" lon="-0.95884">
        <ele>7</ele>
        <time>2024-10-14T17:49:04Z</time>
      </trkpt>
      <trkpt lat="45.90849" lon="-0.95868">
        <ele>7</ele>
        <time>2024-10-14T17:49:20Z</time>
      </trkpt>
      <trkpt lat="45.90847" lon="-0.95843">
        <ele>7</ele>
        <time>2024-10-14T17:49:43Z</time>
      </trkpt>
      <trkpt lat="45.9085" lon="-0.95842">
        <ele>7</ele>
        <time>2024-10-14T17:49:47Z</time>
      </trkpt>
      <trkpt lat="45.90847" lon="-0.95843">
        <ele>7</ele>
        <time>2024-10-14T17:49:51Z</time>
      </trkpt>
      <trkpt lat="45.90849" lon="-0.95868">
        <ele>7</ele>
        <time>2024-10-14T17:50:15Z</time>
      </trkpt>
      <trkpt lat="45.90839" lon="-0.95873">
        <ele>7</ele>
        <time>2024-10-14T17:50:29Z</time>
      </trkpt>
      <trkpt lat="45.90828" lon="-0.95889">
        <ele>6</ele>
        <time>2024-10-14T17:50:50Z</time>
      </trkpt>
      <trkpt lat="45.90823" lon="-0.95896">
        <ele>6</ele>
        <time>2024-10-14T17:50:59Z</time>
      </trkpt>
      <trkpt lat="45.90785" lon="-0.95897">
        <ele>7</ele>
        <time>2024-10-14T17:51:50Z</time>
      </trkpt>
      <trkpt lat="45.90742" lon="-0.95895">
        <ele>7</ele>
        <time>2024-10-14T17:52:47Z</time>
      </trkpt>
      <trkpt lat="45.90684" lon="-0.95891">
        <ele>7</ele>
        <time>2024-10-14T17:54:05Z</time>
      </trkpt>
      <trkpt lat="45.90621" lon="-0.95887">
        <ele>8</ele>
        <time>2024-10-14T17:55:29Z</time>
      </trkpt>
      <trkpt lat="45.90558" lon="-0.95874">
        <ele>8</ele>
        <time>2024-10-14T17:56:54Z</time>
      </trkpt>
      <trkpt lat="45.90479" lon="-0.95854">
        <ele>8</ele>
        <time>2024-10-14T17:58:41Z</time>
      </trkpt>
      <trkpt lat="45.90396" lon="-0.95847">
        <ele>9</ele>
        <time>2024-10-14T18:00:32Z</time>
      </trkpt>
      <trkpt lat="45.90322" lon="-0.95834">
        <ele>9</ele>
        <time>2024-10-14T18:02:11Z</time>
      </trkpt>
      <trkpt lat="45.90285" lon="-0.95823">
        <ele>9</ele>
        <time>2024-10-14T18:03:02Z</time>
      </trkpt>
      <trkpt lat="45.90265" lon="-0.9582">
        <ele>9</ele>
        <time>2024-10-14T18:03:29Z</time>
      </trkpt>
      <trkpt lat="45.90255" lon="-0.95817">
        <ele>9</ele>
        <time>2024-10-14T18:03:42Z</time>
      </trkpt>
      <trkpt lat="45.90252" lon="-0.95824">
        <ele>9</ele>
        <time>2024-10-14T18:03:50Z</time>
      </trkpt>
      <trkpt lat="45.90228" lon="-0.95829">
        <ele>10</ele>
        <time>2024-10-14T18:04:22Z</time>
      </trkpt>
      <trkpt lat="45.90227" lon="-0.9582">
        <ele>10</ele>
        <time>2024-10-14T18:04:31Z</time>
      </trkpt>
      <trkpt lat="45.90228" lon="-0.95829">
        <ele>10</ele>
        <time>2024-10-14T18:04:39Z</time>
      </trkpt>
      <trkpt lat="45.90221" lon="-0.95829">
        <ele>10</ele>
        <time>2024-10-14T18:04:48Z</time>
      </trkpt>
      <trkpt lat="45.90213" lon="-0.95771">
        <ele>10</ele>
        <time>2024-10-14T18:05:43Z</time>
      </trkpt>
      <trkpt lat="45.90204" lon="-0.95695">
        <ele>10</ele>
        <time>2024-10-14T18:06:55Z</time>
      </trkpt>
      <trkpt lat="45.90202" lon="-0.95687">
        <ele>10</ele>
        <time>2024-10-14T18:07:03Z</time>
      </trkpt>
      <trkpt lat="45.90204" lon="-0.95681">
        <ele>10</ele>
        <time>2024-10-14T18:07:09Z</time>
      </trkpt>
      <trkpt lat="45.90195" lon="-0.95624">
        <ele>10</ele>
        <time>2024-10-14T18:08:03Z</time>
      </trkpt>
      <trkpt lat="45.90183" lon="-0.95537">
        <ele>10</ele>
        <time>2024-10-14T18:09:26Z</time>
      </trkpt>
      <trkpt lat="45.90168" lon="-0.95467">
        <ele>9</ele>
        <time>2024-10-14T18:10:34Z</time>
      </trkpt>
      <trkpt lat="45.90163" lon="-0.95443">
        <ele>9</ele>
        <time>2024-10-14T18:10:57Z</time>
      </trkpt>
      <trkpt lat="45.90154" lon="-0.95403">
        <ele>9</ele>
        <time>2024-10-14T18:11:36Z</time>
      </trkpt>
      <trkpt lat="45.90149" lon="-0.95397">
        <ele>9</ele>
        <time>2024-10-14T18:11:45Z</time>
      </trkpt>
      <trkpt lat="45.90147" lon="-0.9539">
        <ele>9</ele>
        <time>2024-10-14T18:11:52Z</time>
      </trkpt>
      <trkpt lat="45.90152" lon="-0.95386">
        <ele>9</ele>
        <time>2024-10-14T18:11:59Z</time>
      </trkpt>
      <trkpt lat="45.901" lon="-0.95278">
        <ele>9</ele>
        <time>2024-10-14T18:14:01Z</time>
      </trkpt>
      <trkpt lat="45.90086" lon="-0.9525">
        <ele>9</ele>
        <time>2024-10-14T18:14:33Z</time>
      </trkpt>
      <trkpt lat="45.9006" lon="-0.95198">
        <ele>9</ele>
        <time>2024-10-14T18:15:33Z</time>
      </trkpt>
      <trkpt lat="45.90037" lon="-0.95158">
        <ele>9</ele>
        <time>2024-10-14T18:16:21Z</time>
      </trkpt>
      <trkpt lat="45.90022" lon="-0.95138">
        <ele>9</ele>
        <time>2024-10-14T18:16:48Z</time>
      </trkpt>
      <trkpt lat="45.89996" lon="-0.95119">
        <ele>9</ele>
        <time>2024-10-14T18:17:27Z</time>
      </trkpt>
      <trkpt lat="45.89993" lon="-0.95115">
        <ele>9</ele>
        <time>2024-10-14T18:17:33Z</time>
      </trkpt>
      <trkpt lat="45.89979" lon="-0.95092">
        <ele>9</ele>
        <time>2024-10-14T18:18:01Z</time>
      </trkpt>
      <trkpt lat="45.89961" lon="-0.95056">
        <ele>9</ele>
        <time>2024-10-14T18:18:42Z</time>
      </trkpt>
      <trkpt lat="45.89936" lon="-0.95068">
        <ele>9</ele>
        <time>2024-10-14T18:19:17Z</time>
      </trkpt>
      <trkpt lat="45.89922" lon="-0.95028">
        <ele>9</ele>
        <time>2024-10-14T18:19:59Z</time>
      </trkpt>
      <trkpt lat="45.89918" lon="-0.95015">
        <ele>9</ele>
        <time>2024-10-14T18:20:12Z</time>
      </trkpt>
      <trkpt lat="45.89879" lon="-0.94825">
        <ele>9</ele>
        <time>2024-10-14T18:23:16Z</time>
      </trkpt>
      <trkpt lat="45.89868" lon="-0.94783">
        <ele>10</ele>
        <time>2024-10-14T18:23:58Z</time>
      </trkpt>
      <trkpt lat="45.89842" lon="-0.94708">
        <ele>9</ele>
        <time>2024-10-14T18:25:16Z</time>
      </trkpt>
      <trkpt lat="45.89839" lon="-0.94695">
        <ele>9</ele>
        <time>2024-10-14T18:25:28Z</time>
      </trkpt>
      <trkpt lat="45.89839" lon="-0.9469">
        <ele>9</ele>
        <time>2024-10-14T18:25:33Z</time>
      </trkpt>
      <trkpt lat="45.89842" lon="-0.94667">
        <ele>9</ele>
        <time>2024-10-14T18:25:55Z</time>
      </trkpt>
      <trkpt lat="45.89845" lon="-0.9466">
        <ele>9</ele>
        <time>2024-10-14T18:26:02Z</time>
      </trkpt>
      <trkpt lat="45.89851" lon="-0.94652">
        <ele>8</ele>
        <time>2024-10-14T18:26:13Z</time>
      </trkpt>
      <trkpt lat="45.89851" lon="-0.94639">
        <ele>8</ele>
        <time>2024-10-14T18:26:25Z</time>
      </trkpt>
      <trkpt lat="45.89863" lon="-0.94585">
        <ele>8</ele>
        <time>2024-10-14T18:27:18Z</time>
      </trkpt>
      <trkpt lat="45.89863" lon="-0.94546">
        <ele>8</ele>
        <time>2024-10-14T18:27:54Z</time>
      </trkpt>
      <trkpt lat="45.89857" lon="-0.9451">
        <ele>9</ele>
        <time>2024-10-14T18:28:29Z</time>
      </trkpt>
      <trkpt lat="45.89848" lon="-0.94461">
        <ele>9</ele>
        <time>2024-10-14T18:29:16Z</time>
      </trkpt>
      <trkpt lat="45.8984" lon="-0.94432">
        <ele>9</ele>
        <time>2024-10-14T18:29:45Z</time>
      </trkpt>
      <trkpt lat="45.89837" lon="-0.9441">
        <ele>9</ele>
        <time>2024-10-14T18:30:05Z</time>
      </trkpt>
      <trkpt lat="45.89835" lon="-0.94384">
        <ele>9</ele>
        <time>2024-10-14T18:30:30Z</time>
      </trkpt>
      <trkpt lat="45.89843" lon="-0.94301">
        <ele>10</ele>
        <time>2024-10-14T18:31:48Z</time>
      </trkpt>
      <trkpt lat="45.89841" lon="-0.94202">
        <ele>11</ele>
        <time>2024-10-14T18:33:19Z</time>
      </trkpt>
      <trkpt lat="45.89842" lon="-0.94182">
        <ele>11</ele>
        <time>2024-10-14T18:33:38Z</time>
      </trkpt>
      <trkpt lat="45.89848" lon="-0.94129">
        <ele>11</ele>
        <time>2024-10-14T18:34:28Z</time>
      </trkpt>
      <trkpt lat="45.89847" lon="-0.94111">
        <ele>11</ele>
        <time>2024-10-14T18:34:45Z</time>
      </trkpt>
      <trkpt lat="45.89843" lon="-0.94079">
        <ele>11</ele>
        <time>2024-10-14T18:35:15Z</time>
      </trkpt>
      <trkpt lat="45.89837" lon="-0.94053">
        <ele>11</ele>
        <time>2024-10-14T18:35:40Z</time>
      </trkpt>
      <trkpt lat="45.89822" lon="-0.93975">
        <ele>11</ele>
        <time>2024-10-14T18:36:56Z</time>
      </trkpt>
      <trkpt lat="45.89807" lon="-0.9388">
        <ele>11</ele>
        <time>2024-10-14T18:38:26Z</time>
      </trkpt>
      <trkpt lat="45.89793" lon="-0.93836">
        <ele>11</ele>
        <time>2024-10-14T18:39:11Z</time>
      </trkpt>
      <trkpt lat="45.89776" lon="-0.9379">
        <ele>11</ele>
        <time>2024-10-14T18:39:59Z</time>
      </trkpt>
      <trkpt lat="45.8978" lon="-0.93792">
        <ele>11</ele>
        <time>2024-10-14T18:40:05Z</time>
      </trkpt>
      <trkpt lat="45.89788" lon="-0.93788">
        <ele>11</ele>
        <time>2024-10-14T18:40:16Z</time>
      </trkpt>
      <trkpt lat="45.89811" lon="-0.93764">
        <ele>12</ele>
        <time>2024-10-14T18:40:54Z</time>
      </trkpt>
      <trkpt lat="45.89848" lon="-0.93719">
        <ele>11</ele>
        <time>2024-10-14T18:41:59Z</time>
      </trkpt>
      <trkpt lat="45.89855" lon="-0.93692">
        <ele>10</ele>
        <time>2024-10-14T18:42:26Z</time>
      </trkpt>
      <trkpt lat="45.89871" lon="-0.93653">
        <ele>8</ele>
        <time>2024-10-14T18:43:08Z</time>
      </trkpt>
      <trkpt lat="45.89881" lon="-0.93638">
        <ele>8</ele>
        <time>2024-10-14T18:43:27Z</time>
      </trkpt>
      <trkpt lat="45.89889" lon="-0.93631">
        <ele>7</ele>
        <time>2024-10-14T18:43:39Z</time>
      </trkpt>
      <trkpt lat="45.8989" lon="-0.93628">
        <ele>7</ele>
        <time>2024-10-14T18:43:43Z</time>
      </trkpt>
      <trkpt lat="45.89888" lon="-0.93622">
        <ele>7</ele>
        <time>2024-10-14T18:43:49Z</time>
      </trkpt>
      <trkpt lat="45.8988" lon="-0.93614">
        <ele>7</ele>
        <time>2024-10-14T18:44:02Z</time>
      </trkpt>
      <trkpt lat="45.89879" lon="-0.93603">
        <ele>7</ele>
        <time>2024-10-14T18:44:12Z</time>
      </trkpt>
      <trkpt lat="45.89872" lon="-0.93594">
        <ele>7</ele>
        <time>2024-10-14T18:44:25Z</time>
      </trkpt>
      <trkpt lat="45.89869" lon="-0.93581">
        <ele>7</ele>
        <time>2024-10-14T18:44:37Z</time>
      </trkpt>
      <trkpt lat="45.89865" lon="-0.9358">
        <ele>7</ele>
        <time>2024-10-14T18:44:43Z</time>
      </trkpt>
      <trkpt lat="45.89852" lon="-0.93558">
        <ele>7</ele>
        <time>2024-10-14T18:45:10Z</time>
      </trkpt>
      <trkpt lat="45.89847" lon="-0.93553">
        <ele>7</ele>
        <time>2024-10-14T18:45:18Z</time>
      </trkpt>
      <trkpt lat="45.89842" lon="-0.93541">
        <ele>7</ele>
        <time>2024-10-14T18:45:31Z</time>
      </trkpt>
      <trkpt lat="45.89836" lon="-0.93536">
        <ele>7</ele>
        <time>2024-10-14T18:45:40Z</time>
      </trkpt>
      <trkpt lat="45.89821" lon="-0.93512">
        <ele>7</ele>
        <time>2024-10-14T18:46:10Z</time>
      </trkpt>
      <trkpt lat="45.89817" lon="-0.93498">
        <ele>6</ele>
        <time>2024-10-14T18:46:24Z</time>
      </trkpt>
      <trkpt lat="45.89817" lon="-0.93493">
        <ele>6</ele>
        <time>2024-10-14T18:46:29Z</time>
      </trkpt>
      <trkpt lat="45.89815" lon="-0.93487">
        <ele>6</ele>
        <time>2024-10-14T18:46:35Z</time>
      </trkpt>
      <trkpt lat="45.89813" lon="-0.93475">
        <ele>6</ele>
        <time>2024-10-14T18:46:46Z</time>
      </trkpt>
      <trkpt lat="45.89817" lon="-0.93467">
        <ele>5</ele>
        <time>2024-10-14T18:46:55Z</time>
      </trkpt>
      <trkpt lat="45.89823" lon="-0.93463">
        <ele>5</ele>
        <time>2024-10-14T18:47:04Z</time>
      </trkpt>
      <trkpt lat="45.89822" lon="-0.93452">
        <ele>5</ele>
        <time>2024-10-14T18:47:14Z</time>
      </trkpt>
      <trkpt lat="45.89832" lon="-0.93441">
        <ele>5</ele>
        <time>2024-10-14T18:47:31Z</time>
      </trkpt>
      <trkpt lat="45.89846" lon="-0.93435">
        <ele>5</ele>
        <time>2024-10-14T18:47:51Z</time>
      </trkpt>
      <trkpt lat="45.8985" lon="-0.93423">
        <ele>5</ele>
        <time>2024-10-14T18:48:03Z</time>
      </trkpt>
      <trkpt lat="45.89866" lon="-0.93424">
        <ele>5</ele>
        <time>2024-10-14T18:48:25Z</time>
      </trkpt>
      <trkpt lat="45.89875" lon="-0.9343">
        <ele>5</ele>
        <time>2024-10-14T18:48:38Z</time>
      </trkpt>
      <trkpt lat="45.89878" lon="-0.93421">
        <ele>5</ele>
        <time>2024-10-14T18:48:47Z</time>
      </trkpt>
      <trkpt lat="45.89884" lon="-0.93415">
        <ele>5</ele>
        <time>2024-10-14T18:48:57Z</time>
      </trkpt>
      <trkpt lat="45.8988" lon="-0.9339">
        <ele>5</ele>
        <time>2024-10-14T18:49:21Z</time>
      </trkpt>
      <trkpt lat="45.89871" lon="-0.93366">
        <ele>4</ele>
        <time>2024-10-14T18:49:46Z</time>
      </trkpt>
      <trkpt lat="45.89829" lon="-0.93282">
        <ele>3</ele>
        <time>2024-10-14T18:51:22Z</time>
      </trkpt>
      <trkpt lat="45.89804" lon="-0.93216">
        <ele>3</ele>
        <time>2024-10-14T18:52:32Z</time>
      </trkpt>
      <trkpt lat="45.89787" lon="-0.93229">
        <ele>4</ele>
        <time>2024-10-14T18:52:57Z</time>
      </trkpt>
      <trkpt lat="45.89783" lon="-0.93227">
        <ele>4</ele>
        <time>2024-10-14T18:53:03Z</time>
      </trkpt>
      <trkpt lat="45.89752" lon="-0.93131">
        <ele>4</ele>
        <time>2024-10-14T18:54:41Z</time>
      </trkpt>
      <trkpt lat="45.89748" lon="-0.93111">
        <ele>4</ele>
        <time>2024-10-14T18:55:01Z</time>
      </trkpt>
      <trkpt lat="45.89747" lon="-0.93107">
        <ele>4</ele>
        <time>2024-10-14T18:55:05Z</time>
      </trkpt>
      <trkpt lat="45.89684" lon="-0.93101">
        <ele>4</ele>
        <time>2024-10-14T18:56:29Z</time>
      </trkpt>
      <trkpt lat="45.89319" lon="-0.93072">
        <ele>3</ele>
        <time>2024-10-14T19:04:37Z</time>
      </trkpt>
      <trkpt lat="45.893" lon="-0.93073">
        <ele>3</ele>
        <time>2024-10-14T19:05:02Z</time>
      </trkpt>
      <trkpt lat="45.89289" lon="-0.93077">
        <ele>4</ele>
        <time>2024-10-14T19:05:17Z</time>
      </trkpt>
      <trkpt lat="45.89278" lon="-0.93085">
        <ele>4</ele>
        <time>2024-10-14T19:05:34Z</time>
      </trkpt>
      <trkpt lat="45.89262" lon="-0.93104">
        <ele>4</ele>
        <time>2024-10-14T19:06:01Z</time>
      </trkpt>
      <trkpt lat="45.89055" lon="-0.93413">
        <ele>5</ele>
        <time>2024-10-14T19:12:40Z</time>
      </trkpt>
      <trkpt lat="45.89046" lon="-0.93422">
        <ele>5</ele>
        <time>2024-10-14T19:12:54Z</time>
      </trkpt>
      <trkpt lat="45.89019" lon="-0.93465">
        <ele>5</ele>
        <time>2024-10-14T19:13:48Z</time>
      </trkpt>
      <trkpt lat="45.88988" lon="-0.93521">
        <ele>5</ele>
        <time>2024-10-14T19:14:55Z</time>
      </trkpt>
      <trkpt lat="45.88961" lon="-0.93567">
        <ele>3</ele>
        <time>2024-10-14T19:15:51Z</time>
      </trkpt>
      <trkpt lat="45.88874" lon="-0.93731">
        <ele>4</ele>
        <time>2024-10-14T19:19:02Z</time>
      </trkpt>
      <trkpt lat="45.88851" lon="-0.93764">
        <ele>4</ele>
        <time>2024-10-14T19:19:45Z</time>
      </trkpt>
      <trkpt lat="45.88721" lon="-0.93885">
        <ele>3</ele>
        <time>2024-10-14T19:23:12Z</time>
      </trkpt>
      <trkpt lat="45.88696" lon="-0.9391">
        <ele>3</ele>
        <time>2024-10-14T19:23:53Z</time>
      </trkpt>
      <trkpt lat="45.88696" lon="-0.93925">
        <ele>3</ele>
        <time>2024-10-14T19:24:07Z</time>
      </trkpt>
      <trkpt lat="45.88676" lon="-0.9395">
        <ele>4</ele>
        <time>2024-10-14T19:24:42Z</time>
      </trkpt>
      <trkpt lat="45.8865" lon="-0.9397">
        <ele>4</ele>
        <time>2024-10-14T19:25:21Z</time>
      </trkpt>
      <trkpt lat="45.88613" lon="-0.94006">
        <ele>5</ele>
        <time>2024-10-14T19:26:21Z</time>
      </trkpt>
      <trkpt lat="45.88579" lon="-0.9403">
        <ele>5</ele>
        <time>2024-10-14T19:27:12Z</time>
      </trkpt>
      <trkpt lat="45.88552" lon="-0.94038">
        <ele>5</ele>
        <time>2024-10-14T19:27:48Z</time>
      </trkpt>
      <trkpt lat="45.88541" lon="-0.94049">
        <ele>4</ele>
        <time>2024-10-14T19:28:06Z</time>
      </trkpt>
      <trkpt lat="45.88497" lon="-0.94087">
        <ele>3</ele>
        <time>2024-10-14T19:29:15Z</time>
      </trkpt>
      <trkpt lat="45.88419" lon="-0.94162">
        <ele>5</ele>
        <time>2024-10-14T19:31:20Z</time>
      </trkpt>
      <trkpt lat="45.88357" lon="-0.94222">
        <ele>4</ele>
        <time>2024-10-14T19:33:00Z</time>
      </trkpt>
      <trkpt lat="45.88002" lon="-0.94559">
        <ele>4</ele>
        <time>2024-10-14T19:42:28Z</time>
      </trkpt>
      <trkpt lat="45.87991" lon="-0.94575">
        <ele>4</ele>
        <time>2024-10-14T19:42:49Z</time>
      </trkpt>
      <trkpt lat="45.87969" lon="-0.9459">
        <ele>4</ele>
        <time>2024-10-14T19:43:21Z</time>
      </trkpt>
      <trkpt lat="45.8794" lon="-0.94616">
        <ele>4</ele>
        <time>2024-10-14T19:44:07Z</time>
      </trkpt>
      <trkpt lat="45.87904" lon="-0.94656">
        <ele>4</ele>
        <time>2024-10-14T19:45:07Z</time>
      </trkpt>
      <trkpt lat="45.87874" lon="-0.94694">
        <ele>4</ele>
        <time>2024-10-14T19:46:01Z</time>
      </trkpt>
      <trkpt lat="45.87851" lon="-0.94731">
        <ele>4</ele>
        <time>2024-10-14T19:46:47Z</time>
      </trkpt>
      <trkpt lat="45.87842" lon="-0.94759">
        <ele>4</ele>
        <time>2024-10-14T19:47:16Z</time>
      </trkpt>
      <trkpt lat="45.87838" lon="-0.94787">
        <ele>4</ele>
        <time>2024-10-14T19:47:42Z</time>
      </trkpt>
      <trkpt lat="45.87849" lon="-0.9478">
        <ele>4</ele>
        <time>2024-10-14T19:47:58Z</time>
      </trkpt>
      <trkpt lat="45.87856" lon="-0.9477">
        <ele>4</ele>
        <time>2024-10-14T19:48:11Z</time>
      </trkpt>
      <trkpt lat="45.8786" lon="-0.94772">
        <ele>5</ele>
        <time>2024-10-14T19:48:17Z</time>
      </trkpt>
      <trkpt lat="45.87874" lon="-0.94752">
        <ele>5</ele>
        <time>2024-10-14T19:48:43Z</time>
      </trkpt>
      <trkpt lat="45.87876" lon="-0.94759">
        <ele>5</ele>
        <time>2024-10-14T19:48:50Z</time>
      </trkpt>
      <trkpt lat="45.87887" lon="-0.94763">
        <ele>5</ele>
        <time>2024-10-14T19:49:05Z</time>
      </trkpt>
      <trkpt lat="45.87901" lon="-0.94775">
        <ele>6</ele>
        <time>2024-10-14T19:49:27Z</time>
      </trkpt>
      <trkpt lat="45.87904" lon="-0.94775">
        <ele>6</ele>
        <time>2024-10-14T19:49:31Z</time>
      </trkpt>
      <trkpt lat="45.87912" lon="-0.94791">
        <ele>6</ele>
        <time>2024-10-14T19:49:50Z</time>
      </trkpt>
      <trkpt lat="45.87917" lon="-0.94793">
        <ele>7</ele>
        <time>2024-10-14T19:49:56Z</time>
      </trkpt>
      <trkpt lat="45.87924" lon="-0.94812">
        <ele>7</ele>
        <time>2024-10-14T19:50:16Z</time>
      </trkpt>
      <trkpt lat="45.87945" lon="-0.94835">
        <ele>8</ele>
        <time>2024-10-14T19:50:52Z</time>
      </trkpt>
      <trkpt lat="45.8796" lon="-0.94865">
        <ele>9</ele>
        <time>2024-10-14T19:51:26Z</time>
      </trkpt>
      <trkpt lat="45.87965" lon="-0.94868">
        <ele>9</ele>
        <time>2024-10-14T19:51:33Z</time>
      </trkpt>
      <trkpt lat="45.87966" lon="-0.9488">
        <ele>9</ele>
        <time>2024-10-14T19:51:44Z</time>
      </trkpt>
      <trkpt lat="45.87991" lon="-0.9495">
        <ele>11</ele>
        <time>2024-10-14T19:52:58Z</time>
      </trkpt>
      <trkpt lat="45.87996" lon="-0.94986">
        <ele>12</ele>
        <time>2024-10-14T19:53:32Z</time>
      </trkpt>
      <trkpt lat="45.88" lon="-0.95046">
        <ele>13</ele>
        <time>2024-10-14T19:54:28Z</time>
      </trkpt>
      <trkpt lat="45.87997" lon="-0.95065">
        <ele>13</ele>
        <time>2024-10-14T19:54:46Z</time>
      </trkpt>
      <trkpt lat="45.87989" lon="-0.95081">
        <ele>13</ele>
        <time>2024-10-14T19:55:04Z</time>
      </trkpt>
      <trkpt lat="45.87968" lon="-0.95091">
        <ele>12</ele>
        <time>2024-10-14T19:55:34Z</time>
      </trkpt>
      <trkpt lat="45.87962" lon="-0.95098">
        <ele>11</ele>
        <time>2024-10-14T19:55:44Z</time>
      </trkpt>
      <trkpt lat="45.87937" lon="-0.95114">
        <ele>10</ele>
        <time>2024-10-14T19:56:20Z</time>
      </trkpt>
      <trkpt lat="45.87927" lon="-0.95123">
        <ele>10</ele>
        <time>2024-10-14T19:56:36Z</time>
      </trkpt>
      <trkpt lat="45.87913" lon="-0.9513">
        <ele>9</ele>
        <time>2024-10-14T19:56:56Z</time>
      </trkpt>
      <trkpt lat="45.87895" lon="-0.95132">
        <ele>8</ele>
        <time>2024-10-14T19:57:20Z</time>
      </trkpt>
      <trkpt lat="45.87887" lon="-0.95149">
        <ele>7</ele>
        <time>2024-10-14T19:57:39Z</time>
      </trkpt>
      <trkpt lat="45.87877" lon="-0.9518">
        <ele>6</ele>
        <time>2024-10-14T19:58:11Z</time>
      </trkpt>
      <trkpt lat="45.87876" lon="-0.95184">
        <ele>6</ele>
        <time>2024-10-14T19:58:15Z</time>
      </trkpt>
      <trkpt lat="45.8786" lon="-0.95244">
        <ele>4</ele>
        <time>2024-10-14T19:59:14Z</time>
      </trkpt>
      <trkpt lat="45.8785" lon="-0.9535">
        <ele>5</ele>
        <time>2024-10-14T20:00:54Z</time>
      </trkpt>
      <trkpt lat="45.8785" lon="-0.95428">
        <ele>5</ele>
        <time>2024-10-14T20:02:06Z</time>
      </trkpt>
      <trkpt lat="45.87855" lon="-0.95461">
        <ele>5</ele>
        <time>2024-10-14T20:02:38Z</time>
      </trkpt>
      <trkpt lat="45.87871" lon="-0.95499">
        <ele>5</ele>
        <time>2024-10-14T20:03:19Z</time>
      </trkpt>
      <trkpt lat="45.87897" lon="-0.95535">
        <ele>6</ele>
        <time>2024-10-14T20:04:07Z</time>
      </trkpt>
      <trkpt lat="45.87924" lon="-0.95563">
        <ele>6</ele>
        <time>2024-10-14T20:04:52Z</time>
      </trkpt>
      <trkpt lat="45.87942" lon="-0.95586">
        <ele>6</ele>
        <time>2024-10-14T20:05:24Z</time>
      </trkpt>
      <trkpt lat="45.87995" lon="-0.95672">
        <ele>6</ele>
        <time>2024-10-14T20:07:10Z</time>
      </trkpt>
      <trkpt lat="45.88039" lon="-0.95704">
        <ele>7</ele>
        <time>2024-10-14T20:08:16Z</time>
      </trkpt>
      <trkpt lat="45.8807" lon="-0.95739">
        <ele>7</ele>
        <time>2024-10-14T20:09:09Z</time>
      </trkpt>
      <trkpt lat="45.88099" lon="-0.95805">
        <ele>9</ele>
        <time>2024-10-14T20:10:21Z</time>
      </trkpt>
      <trkpt lat="45.88109" lon="-0.9584">
        <ele>10</ele>
        <time>2024-10-14T20:10:57Z</time>
      </trkpt>
      <trkpt lat="45.8811" lon="-0.95839">
        <ele>10</ele>
        <time>2024-10-14T20:10:58Z</time>
      </trkpt>
      <trkpt lat="45.88115" lon="-0.95836">
        <ele>10</ele>
        <time>2024-10-14T20:11:05Z</time>
      </trkpt>
      <trkpt lat="45.88141" lon="-0.95831">
        <ele>9</ele>
        <time>2024-10-14T20:11:40Z</time>
      </trkpt>
      <trkpt lat="45.8816" lon="-0.95817">
        <ele>9</ele>
        <time>2024-10-14T20:12:09Z</time>
      </trkpt>
      <trkpt lat="45.882" lon="-0.9578">
        <ele>10</ele>
        <time>2024-10-14T20:13:12Z</time>
      </trkpt>
      <trkpt lat="45.88229" lon="-0.95748">
        <ele>10</ele>
        <time>2024-10-14T20:14:01Z</time>
      </trkpt>
      <trkpt lat="45.88328" lon="-0.95666">
        <ele>11</ele>
        <time>2024-10-14T20:16:34Z</time>
      </trkpt>
      <trkpt lat="45.88343" lon="-0.95662">
        <ele>11</ele>
        <time>2024-10-14T20:16:54Z</time>
      </trkpt>
      <trkpt lat="45.88376" lon="-0.95663">
        <ele>12</ele>
        <time>2024-10-14T20:17:38Z</time>
      </trkpt>
      <trkpt lat="45.88393" lon="-0.95658">
        <ele>13</ele>
        <time>2024-10-14T20:18:01Z</time>
      </trkpt>
      <trkpt lat="45.88438" lon="-0.95621">
        <ele>12</ele>
        <time>2024-10-14T20:19:10Z</time>
      </trkpt>
      <trkpt lat="45.88506" lon="-0.95549">
        <ele>12</ele>
        <time>2024-10-14T20:21:03Z</time>
      </trkpt>
      <trkpt lat="45.88568" lon="-0.95503">
        <ele>13</ele>
        <time>2024-10-14T20:22:36Z</time>
      </trkpt>
      <trkpt lat="45.88609" lon="-0.95476">
        <ele>13</ele>
        <time>2024-10-14T20:23:36Z</time>
      </trkpt>
      <trkpt lat="45.88639" lon="-0.95463">
        <ele>12</ele>
        <time>2024-10-14T20:24:18Z</time>
      </trkpt>
      <trkpt lat="45.88676" lon="-0.95453">
        <ele>12</ele>
        <time>2024-10-14T20:25:09Z</time>
      </trkpt>
      <trkpt lat="45.88658" lon="-0.95379">
        <ele>13</ele>
        <time>2024-10-14T20:26:21Z</time>
      </trkpt>
      <trkpt lat="45.88639" lon="-0.9527">
        <ele>14</ele>
        <time>2024-10-14T20:28:06Z</time>
      </trkpt>
      <trkpt lat="45.88627" lon="-0.9522">
        <ele>13</ele>
        <time>2024-10-14T20:28:55Z</time>
      </trkpt>
      <trkpt lat="45.88609" lon="-0.95178">
        <ele>13</ele>
        <time>2024-10-14T20:29:41Z</time>
      </trkpt>
      <trkpt lat="45.88552" lon="-0.95098">
        <ele>13</ele>
        <time>2024-10-14T20:31:27Z</time>
      </trkpt>
      <trkpt lat="45.88591" lon="-0.94983">
        <ele>13</ele>
        <time>2024-10-14T20:33:26Z</time>
      </trkpt>
      <trkpt lat="45.88606" lon="-0.94956">
        <ele>14</ele>
        <time>2024-10-14T20:33:58Z</time>
      </trkpt>
      <trkpt lat="45.88826" lon="-0.94752">
        <ele>12</ele>
        <time>2024-10-14T20:39:47Z</time>
      </trkpt>
      <trkpt lat="45.88851" lon="-0.94713">
        <ele>12</ele>
        <time>2024-10-14T20:40:37Z</time>
      </trkpt>
      <trkpt lat="45.88854" lon="-0.94711">
        <ele>12</ele>
        <time>2024-10-14T20:40:41Z</time>
      </trkpt>
      <trkpt lat="45.88893" lon="-0.94689">
        <ele>11</ele>
        <time>2024-10-14T20:41:37Z</time>
      </trkpt>
      <trkpt lat="45.88915" lon="-0.94658">
        <ele>10</ele>
        <time>2024-10-14T20:42:18Z</time>
      </trkpt>
      <trkpt lat="45.88932" lon="-0.94613">
        <ele>11</ele>
        <time>2024-10-14T20:43:06Z</time>
      </trkpt>
      <trkpt lat="45.88941" lon="-0.94573">
        <ele>11</ele>
        <time>2024-10-14T20:43:45Z</time>
      </trkpt>
      <trkpt lat="45.89003" lon="-0.94534">
        <ele>12</ele>
        <time>2024-10-14T20:45:15Z</time>
      </trkpt>
      <trkpt lat="45.89008" lon="-0.94531">
        <ele>12</ele>
        <time>2024-10-14T20:45:22Z</time>
      </trkpt>
      <trkpt lat="45.89072" lon="-0.94516">
        <ele>13</ele>
        <time>2024-10-14T20:46:49Z</time>
      </trkpt>
      <trkpt lat="45.89097" lon="-0.94541">
        <ele>12</ele>
        <time>2024-10-14T20:47:29Z</time>
      </trkpt>
      <trkpt lat="45.89192" lon="-0.94451">
        <ele>11</ele>
        <time>2024-10-14T20:50:01Z</time>
      </trkpt>
      <trkpt lat="45.89338" lon="-0.94312">
        <ele>11</ele>
        <time>2024-10-14T20:53:55Z</time>
      </trkpt>
      <trkpt lat="45.89352" lon="-0.94291">
        <ele>11</ele>
        <time>2024-10-14T20:54:22Z</time>
      </trkpt>
      <trkpt lat="45.89373" lon="-0.94319">
        <ele>11</ele>
        <time>2024-10-14T20:55:00Z</time>
      </trkpt>
      <trkpt lat="45.89393" lon="-0.9435">
        <ele>11</ele>
        <time>2024-10-14T20:55:39Z</time>
      </trkpt>
      <trkpt lat="45.89433" lon="-0.94443">
        <ele>10</ele>
        <time>2024-10-14T20:57:21Z</time>
      </trkpt>
      <trkpt lat="45.8947" lon="-0.94526">
        <ele>10</ele>
        <time>2024-10-14T20:58:53Z</time>
      </trkpt>
      <trkpt lat="45.89546" lon="-0.94649">
        <ele>10</ele>
        <time>2024-10-14T21:01:25Z</time>
      </trkpt>
      <trkpt lat="45.89619" lon="-0.94758">
        <ele>10</ele>
        <time>2024-10-14T21:03:46Z</time>
      </trkpt>
      <trkpt lat="45.89678" lon="-0.94823">
        <ele>10</ele>
        <time>2024-10-14T21:05:25Z</time>
      </trkpt>
      <trkpt lat="45.89699" lon="-0.94847">
        <ele>10</ele>
        <time>2024-10-14T21:06:01Z</time>
      </trkpt>
      <trkpt lat="45.89709" lon="-0.94861">
        <ele>10</ele>
        <time>2024-10-14T21:06:19Z</time>
      </trkpt>
      <trkpt lat="45.89719" lon="-0.94877">
        <ele>10</ele>
        <time>2024-10-14T21:06:39Z</time>
      </trkpt>
      <trkpt lat="45.89727" lon="-0.94892">
        <ele>10</ele>
        <time>2024-10-14T21:06:57Z</time>
      </trkpt>
      <trkpt lat="45.89736" lon="-0.9491">
        <ele>10</ele>
        <time>2024-10-14T21:07:18Z</time>
      </trkpt>
      <trkpt lat="45.8974" lon="-0.94922">
        <ele>10</ele>
        <time>2024-10-14T21:07:30Z</time>
      </trkpt>
      <trkpt lat="45.89742" lon="-0.94929">
        <ele>10</ele>
        <time>2024-10-14T21:07:37Z</time>
      </trkpt>
      <trkpt lat="45.89743" lon="-0.94933">
        <ele>10</ele>
        <time>2024-10-14T21:07:41Z</time>
      </trkpt>
      <trkpt lat="45.89747" lon="-0.94946">
        <ele>10</ele>
        <time>2024-10-14T21:07:54Z</time>
      </trkpt>
      <trkpt lat="45.8977" lon="-0.95056">
        <ele>10</ele>
        <time>2024-10-14T21:09:41Z</time>
      </trkpt>
      <trkpt lat="45.89792" lon="-0.95112">
        <ele>10</ele>
        <time>2024-10-14T21:10:40Z</time>
      </trkpt>
      <trkpt lat="45.89812" lon="-0.95111">
        <ele>10</ele>
        <time>2024-10-14T21:11:07Z</time>
      </trkpt>
      <trkpt lat="45.89829" lon="-0.95113">
        <ele>9</ele>
        <time>2024-10-14T21:11:30Z</time>
      </trkpt>
      <trkpt lat="45.89827" lon="-0.9514">
        <ele>10</ele>
        <time>2024-10-14T21:11:55Z</time>
      </trkpt>
      <trkpt lat="45.89837" lon="-0.95145">
        <ele>10</ele>
        <time>2024-10-14T21:12:09Z</time>
      </trkpt>
      <trkpt lat="45.89845" lon="-0.95154">
        <ele>10</ele>
        <time>2024-10-14T21:12:23Z</time>
      </trkpt>
      <trkpt lat="45.89854" lon="-0.95176">
        <ele>10</ele>
        <time>2024-10-14T21:12:47Z</time>
      </trkpt>
      <trkpt lat="45.89856" lon="-0.95189">
        <ele>10</ele>
        <time>2024-10-14T21:12:59Z</time>
      </trkpt>
      <trkpt lat="45.89854" lon="-0.95203">
        <ele>10</ele>
        <time>2024-10-14T21:13:12Z</time>
      </trkpt>
      <trkpt lat="45.89891" lon="-0.95201">
        <ele>10</ele>
        <time>2024-10-14T21:14:02Z</time>
      </trkpt>
      <trkpt lat="45.89899" lon="-0.95199">
        <ele>10</ele>
        <time>2024-10-14T21:14:12Z</time>
      </trkpt>
      <trkpt lat="45.89912" lon="-0.95189">
        <ele>9</ele>
        <time>2024-10-14T21:14:32Z</time>
      </trkpt>
      <trkpt lat="45.89926" lon="-0.95229">
        <ele>10</ele>
        <time>2024-10-14T21:15:14Z</time>
      </trkpt>
      <trkpt lat="45.89933" lon="-0.95229">
        <ele>10</ele>
        <time>2024-10-14T21:15:23Z</time>
      </trkpt>
      <trkpt lat="45.89942" lon="-0.95254">
        <ele>10</ele>
        <time>2024-10-14T21:15:49Z</time>
      </trkpt>
      <trkpt lat="45.8995" lon="-0.95265">
        <ele>10</ele>
        <time>2024-10-14T21:16:04Z</time>
      </trkpt>
      <trkpt lat="45.89969" lon="-0.9531">
        <ele>10</ele>
        <time>2024-10-14T21:16:53Z</time>
      </trkpt>
      <trkpt lat="45.89988" lon="-0.95352">
        <ele>10</ele>
        <time>2024-10-14T21:17:39Z</time>
      </trkpt>
      <trkpt lat="45.89994" lon="-0.95356">
        <ele>10</ele>
        <time>2024-10-14T21:17:48Z</time>
      </trkpt>
      <trkpt lat="45.89985" lon="-0.95401">
        <ele>9</ele>
        <time>2024-10-14T21:18:32Z</time>
      </trkpt>
      <trkpt lat="45.89983" lon="-0.95403">
        <ele>10</ele>
        <time>2024-10-14T21:18:35Z</time>
      </trkpt>
      <trkpt lat="45.89992" lon="-0.95417">
        <ele>9</ele>
        <time>2024-10-14T21:18:53Z</time>
      </trkpt>
      <trkpt lat="45.90036" lon="-0.95484">
        <ele>10</ele>
        <time>2024-10-14T21:20:18Z</time>
      </trkpt>
      <trkpt lat="45.9004" lon="-0.9549">
        <ele>10</ele>
        <time>2024-10-14T21:20:26Z</time>
      </trkpt>
      <trkpt lat="45.90101" lon="-0.95578">
        <ele>11</ele>
        <time>2024-10-14T21:22:21Z</time>
      </trkpt>
      <trkpt lat="45.90122" lon="-0.95611">
        <ele>11</ele>
        <time>2024-10-14T21:23:03Z</time>
      </trkpt>
      <trkpt lat="45.90139" lon="-0.95655">
        <ele>10</ele>
        <time>2024-10-14T21:23:49Z</time>
      </trkpt>
      <trkpt lat="45.90139" lon="-0.95657">
        <ele>10</ele>
        <time>2024-10-14T21:23:51Z</time>
      </trkpt>
      <trkpt lat="45.90163" lon="-0.95717">
        <ele>11</ele>
        <time>2024-10-14T21:24:56Z</time>
      </trkpt>
      <trkpt lat="45.90193" lon="-0.95781">
        <ele>11</ele>
        <time>2024-10-14T21:26:07Z</time>
      </trkpt>
      <trkpt lat="45.90181" lon="-0.95794">
        <ele>11</ele>
        <time>2024-10-14T21:26:27Z</time>
      </trkpt>
      <trkpt lat="45.9017" lon="-0.95812">
        <ele>12</ele>
        <time>2024-10-14T21:26:50Z</time>
      </trkpt>
      <trkpt lat="45.90165" lon="-0.95809">
        <ele>12</ele>
        <time>2024-10-14T21:26:57Z</time>
      </trkpt>
    </trkseg>
  </trk>
</gpx>